Regional Weather Roundup
Issued by NWS Bismarck, ND

Home | Current Version | Previous Version | Text Only | Print | Product List | Glossary On
Versions: 1 2 3 4 5 6 7 8 9 10 11 12 13 14 15 16 17 18 19 20 21 22 23 24 25 26 27 28 29 30 31 32 33 34 35 36 37 38 39 40 41 42 43 44 45 46 47 48 49 50
000
ASUS43 KBIS 270110
RWRBIS

NWR BROADCAST TEXT
NATIONAL WEATHER SERVICE BISMARCK ND
800 PM CDT SUN APR 26 2015

NOTE: "FAIR" INDICATES FEW OR NO CLOUDS BELOW 12,000 FEET WITH NO
SIGNIFICANT WEATHER AND/OR OBSTRUCTIONS TO VISIBILITY.


CITY           SKY/WX    TMP DP  RH WIND       PRES   REMARKS
WILLISTON      CLOUDY    53  34  48 N8        30.15R
MINOT          LGT RAIN  49  45  86 SW3       30.13S
MINOT AFB      CLOUDY    49  49 100 SW7       30.12S
BISMARCK       CLOUDY    54  48  80 N10       30.11R
DICKINSON      CLOUDY    44  41  89 N7        30.11S
GARRISON         N/A     49  46  90 N6        30.13S
HETTINGER ARPT CLOUDY    46  44  93 NE10      30.10S FOG
JAMESTOWN      PTCLDY    62  32  32 E7        30.08S
BEACH          LGT RAIN  41  41 100 N6        30.15F
CARRINGTON     FAIR      61  41  48 N3        30.11R HAZE
CROSBY         FAIR      50  37  62 N8        30.16R
HARVEY           N/A    N/A N/A N/A MISG        N/A
HAZEN          CLOUDY    46  45  93 N5        30.14S
LINTON         FAIR      59  34  38 S5        30.08R
MANDAN         CLOUDY    50  48  93 N12       30.12R
OAKES            N/A     59  32  36 E9        30.10R
RUGBY            N/A    N/A N/A N/A NW5       30.13R
STANLEY        CLOUDY    54  39  58 CALM      30.14R
WATFORD CITY   CLOUDY    50  39  66 S6        30.13R
$$

CITY           SKY/WX    TMP DP  RH WIND       PRES   REMARKS
GRAND FORKS    MOCLDY    64  29  26 CALM      30.10S
GRAND FORKS AF PTCLDY    63  26  24 S3        30.10S
DEVILS LAKE    MOCLDY    55  45  67 N8        30.11S
FARGO          PTCLDY    65  23  20 CALM      30.10R
CANDO          CLOUDY    55  48  76 NW9       30.13S
CAVALIER       FAIR      63  45  51 NW8       30.10R
GRAFTON        FAIR      63  32  31 S5        30.11S
GWINNER        CLEAR     63  32  31 SE5       30.11S
LANGDON        FAIR      57  46  67 NW13      30.12S
ROLLA          CLOUDY    50  48  93 W6        30.14R
WALHALLA       FAIR      59  45  58 NW6       30.11R
$$

CITY           SKY/WX    TMP DP  RH WIND       PRES   REMARKS
ABERDEEN       CLEAR     63  32  31 E8        30.07S
MOBRIDGE       CLOUDY    61  36  39 E6        30.04R
BUFFALO          N/A     47  47 100 NE16      30.02R
RAPID CITY     CLOUDY    50  46  86 CALM      30.07R
GLASGOW        CLOUDY    43  32  65 W8        30.21R
SIDNEY         CLOUDY    48  34  57 NW9       30.17R
WOLF POINT     CLOUDY    47  36  65 NW13      30.19S
GLENDIVE       CLOUDY    43  39  87 N12       30.17S
MILES CITY     LGT RAIN  38  35  89 N14       30.19R
BAKER          CLOUDY    42  40  92 N9        30.14S
$$

CITY           SKY/WX    TMP DP  RH WIND       PRES   REMARKS
BILLINGS       LGT RAIN  37  35  92 NE13      30.21R
GREAT FALLS    CLOUDY    41  31  67 SW6       30.20S
REGINA         CLOUDY    39  34  81 W12       30.19R
ESTEVAN        CLOUDY    50  34  53 NW10      30.15S
$$




USA.gov is the U.S. government's official web portal to all federal, state and local government web resources and services.